sat.trackr.live / text

‹ back to catalog

STARLINK-37861

NORAD 69552 · 2026-135G

PAYLOAD ACTIVE UNKNOWN

§ Identity

Operator
Country
US
Launch date
2026-06-15
Launch site
AFWTR
Launch vehicle
Mass (kg)
RCS (m²)

Purposes: comms

External: N2YO · Heavens-Above · Gunter

§ Orbital elements

Epoch: 2026-09-19T22:45:30.129696Z

Period
93.91 min
Inclination
97.2849°
Eccentricity
0.0001127
Mean motion
15.33453848 rev/d
Perigee alt
464.7 km
Apogee alt
466.3 km
Semi-major
6,843.7 km
B*
3.6351e-4
RAAN
290.6111°
Arg perigee
92.3262°
Mean anomaly
267.8110°
Rev number
1,491

§ Raw data

STARLINK-378611 69552U 26135G   26262.94826539  .00011682  00000+0  36351-3 0  99962 69552  97.2849 290.6111 0001127  92.3262 267.8110 15.33453848 14917

JSON: /api/v1/satellites/69552 · /tle

For live sub-satellite position, see the globe view (requires WebGL).

§ Visibility from observer

Set your observer location to see the next 7 days of passes ≥ 10°. The values pass through the URL so the page stays shareable.

No JS? Fill the form by hand. The geolocation button needs JavaScript.